This is the latest recevied weather packets stored in our database for station/object 4S6DRJ-13. If no packets are shown the sender has not sent any weather packets the latest 10 day(s).
| Time | Temp. | Humidity | Pressure | Rain* | Wind** | Luminosity | Snow |
|---|---|---|---|---|---|---|---|
| 1787655708 | 28.33° C | 79% | 1009 hPa | 0 mm | 0.45 m/s, 253° | 91 W/m² | - |
| 1787655647 | 28.33° C | 79% | 1008.8 hPa | 0 mm | 3.13 m/s, 132° | 91 W/m² | - |
| 1787655586 | 28.33° C | 79% | 1008.8 hPa | 0 mm | 1.34 m/s, 206° | 92 W/m² | - |
| 1787655525 | 28.33° C | 80% | 1008.8 hPa | 0 mm | 0.45 m/s, 211° | 92 W/m² | - |
| 1787655464 | 28.33° C | 80% | 1008.8 hPa | 0 mm | 0 m/s | 92 W/m² | - |
| 1787655403 | 28.33° C | 80% | 1008.8 hPa | 0 mm | 0.89 m/s, 279° | 93 W/m² | - |
| 1787655342 | 28.33° C | 80% | 1008.8 hPa | 0 mm | 0.89 m/s, 285° | 93 W/m² | - |
| 1787655281 | 28.33° C | 79% | 1008.8 hPa | 0 mm | 1.34 m/s, 227° | 93 W/m² | - |
| 1787655220 | 28.33° C | 80% | 1008.9 hPa | 0 mm | 0.89 m/s, 180° | 93 W/m² | - |
| 1787655159 | 28.33° C | 79% | 1008.9 hPa | 0 mm | 1.34 m/s, 164° | 92 W/m² | - |
| 1787655099 | 28.33° C | 79% | 1008.9 hPa | 0 mm | 0.89 m/s, 87° | 92 W/m² | - |
| 1787655037 | 28.33° C | 79% | 1008.8 hPa | 0 mm | 2.24 m/s, 192° | 92 W/m² | - |
| 1787654976 | 28.33° C | 79% | 1008.8 hPa | 0 mm | 1.34 m/s, 266° | 92 W/m² | - |
| 1787654915 | 28.33° C | 79% | 1008.8 hPa | 0 mm | 1.79 m/s, 280° | 92 W/m² | - |
| 1787654854 | 28.33° C | 79% | 1008.7 hPa | 0 mm | 2.24 m/s, 252° | 91 W/m² | - |
| 1787654793 | 28.33° C | 79% | 1008.9 hPa | 0 mm | 2.24 m/s, 231° | 91 W/m² | - |
| 1787654732 | 28.33° C | 79% | 1008.6 hPa | 0 mm | 1.34 m/s, 92° | 91 W/m² | - |
| 1787654671 | 28.33° C | 79% | 1008.8 hPa | 0 mm | 0.45 m/s, 259° | 91 W/m² | - |
| 1787654610 | 28.33° C | 79% | 1008.8 hPa | 0 mm | 0.89 m/s, 310° | 91 W/m² | - |
| 1787654549 | 28.33° C | 79% | 1008.6 hPa | 0 mm | 0.89 m/s, 203° | 92 W/m² | - |
| 1787654488 | 28.33° C | 80% | 1008.9 hPa | 0 mm | 0 m/s | 93 W/m² | - |
| 1787654427 | 28.33° C | 79% | 1008.7 hPa | 0 mm | 0.89 m/s, 151° | 95 W/m² | - |
| 1787654366 | 28.33° C | 79% | 1008.7 hPa | 0 mm | 1.34 m/s, 302° | 97 W/m² | - |
| 1787654305 | 28.33° C | 79% | 1008.7 hPa | 0 mm | 0.89 m/s, 243° | 100 W/m² | - |
| 1787654245 | 28.33° C | 79% | 1008.6 hPa | 0 mm | 0.89 m/s, 325° | 101 W/m² | - |
* Rain latest hour (hover to see other rain measurements)
** Current wind speed in m/s (hover to see current wind gust speed)